Wind_Speed
44 42 41 42 44 41 40 40 42 40 39 42 43 42 40 41 41 42 43 47 47 47 48 46 44 41 41 44 47 46 44 44 46 49 49 50 50 51 49 49 50 53 49 48 46 40 42
48 48 44 46 46 45 42 42 44 46 45 46 45 46 45 40 42 43 48 46 48 50 51 51 47 45 43 41 44 45 48 50 50 48 49 50 50 51 51 47 47 49 51 47 44 43 44
54 52 51 51 52 51 48 47 48 49 49 49 51 51 49 48 47 48 44 47 48 49 54 50 49 50 48 46 45 48 50 50 48 49 48 49 50 52 51 48 50 51 53 51 47 48 46
59 59 59 58 57 54 54 53 54 54 58 55 54 55 52 51 56 56 44 44 48 47 43 43 40 39 41 47 49 51 48 49 50 50 51 52 52 53 55 52 49 51 51 48 46 46 48
66 64 65 61 60 58 56 56 57 57 57 58 58 58 55 53 59 57 51 46 47 50 48 44 42 44 40 41 41 43 46 48 48 48 49 51 52 52 53 52 50 49 51 51 50 48 47
69 71 67 66 64 61 59 59 60 64 59 62 60 59 58 60 59 62 54 53 52 53 54 54 51 42 41 40 36 38 43 45 46 46 47 47 50 53 50 50 54 52 52 54 53 50 49
75 75 74 68 66 65 65 65 65 64 65 64 59 59 61 61 64 57 59 56 56 54 54 50 48 45 45 40 41 47 42 44 45 46 47 48 51 52 49 51 52 53 53 54 49 53 55
78 76 74 71 69 68 67 66 66 68 63 66 64 61 63 64 57 62 57 55 55 53 53 51 52 53 53 56 56 51 49 44 48 50 49 49 50 48 48 49 51 52 53 53 52 54 55
83 74 73 71 71 70 67 64 67 68 66 65 66 63 62 66 59 60 54 56 52 52 55 55 57 57 58 58 56 53 50 51 52 51 51 53 51 49 51 51 51 52 53 53 54 57 56
75 73 71 67 68 67 66 66 68 64 68 68 69 66 49 53 59 56 58 55 53 60 55 54 53 53 55 54 54 53 53 52 52 52 54 55 52 50 51 51 53 53 53 55 55 57 59
72 68 66 64 63 62 64 61 65 66 66 65 67 63 61 69 58 52 61 70 66 48 53 52 53 54 51 51 52 49 50 50 50 52 50 51 52 50 51 51 51 53 54 56 58 59 64
70 67 61 59 60 59 60 62 63 63 63 65 64 62 61 59 66 55 59 48 52 55 54 49 49 46 49 49 46 44 43 45 49 49 49 49 48 48 50 51 52 54 56 58 62 66 71
65 61 60 58 56 56 57 57 59 62 63 60 59 58 58 65 58 54 55 51 52 57 49 44 46 45 48 47 46 46 46 47 47 47 47 46 46 47 50 51 53 55 61 65 67 71 73
61 60 59 58 55 52 51 53 54 53 52 53 51 50 52 54 54 45 50 54 43 44 42 38 43 46 46 45 45 45 47 49 52 51 48 44 42 46 50 55 57 61 67 69 65 66 63
61 60 59 59 54 50 52 51 49 46 48 46 45 47 47 53 53 48 49 54 50 44 39 42 42 46 46 45 47 45 45 45 45 41 38 43 43 47 55 57 59 62 60 61 62 50 37
65 61 60 59 54 52 49 46 43 42 39 40 42 47 45 48 48 48 53 44 47 47 46 46 47 47 48 45 43 41 43 40 34 36 41 45 47 52 56 60 63 60 46 31 21 15 13
63 65 62 59 56 51 46 45 42 38 37 37 43 40 46 47 43 45 47 48 48 51 46 44 44 46 44 40 33 32 31 31 33 40 44 48 53 53 57 52 35 11 10 6 6 11 13
59 62 64 60 54 46 44 42 40 39 41 40 41 41 42 42 42 42 42 46 48 46 45 43 37 34 29 24 23 23 30 36 39 45 51 53 50 37 18 11 5 4 6 9 9 13 13
56 58 61 56 46 43 40 40 39 36 33 35 33 36 34 36 43 44 37 39 46 40 31 30 25 21 20 21 27 29 34 40 44 49 46 20 10 9 5 3 5 5 3 9 15 13 13
50 52 50 45 44 40 39 39 39 32 36 33 42 41 36 35 40 40 42 38 32 27 26 23 18 18 23 25 28 32 37 39 36 18 6 5 7 10 12 8 6 7 13 10 7 9 11
40 42 39 36 37 41 44 45 39 39 33 30 35 31 31 36 38 42 37 28 25 24 19 15 17 21 22 24 29 28 23 10 3 8 10 9 7 10 10 9 10 8 7 10 4 9 5
34 38 35 34 31 29 36 35 32 35 34 42 36 32 36 37 37 31 27 25 22 19 14 16 18 19 22 25 21 13 10 7 13 13 11 4 3 13 11 9 12 7 8 7 6 5 5
32 28 36 42 35 29 26 28 38 35 43 38 31 31 35 31 27 26 24 21 18 14 15 17 18 19 20 18 12 9 11 12 9 6 1 5 1 9 10 8 13 8 6 9 7 7 2
47 43 42 47 49 44 34 40 37 31 29 29 31 31 27 27 27 24 22 19 16 17 15 16 16 16 16 13 8 13 15 12 9 4 2 6 17 18 14 13 13 6 9 8 10 9 2
31 31 32 33 33 31 32 31 31 31 29 27 25 27 28 28 24 23 19 17 17 15 14 14 12 15 13 8 14 14 14 14 11 8 4 4 7 12 15 15 11 10 10 6 6 10 2
31 31 29 29 29 31 32 31 30 26 22 25 28 28 27 27 23 22 21 19 15 13 12 11 12 13 14 10 10 13 14 15 12 7 2 1 4 17 13 12 12 11 11 11 13 11 9
31 31 32 31 30 29 28 27 26 26 26 28 29 28 25 24 24 22 16 13 12 10 11 11 12 14 16 14 11 6 8 15 13 8 11 8 8 12 16 16 12 14 15 13 13 10 8
30 31 31 31 31 29 28 28 27 26 30 28 26 24 21 21 17 16 16 13 11 10 12 12 12 13 19 12 15 12 8 10 15 14 12 9 17 16 9 15 14 12 10 8 9 8 7
25 28 29 30 30 30 29 28 31 32 30 27 24 23 22 21 17 15 13 12 10 10 12 14 11 12 20 16 15 16 11 11 15 17 16 12 12 8 8 11 11 7 7 6 7 6 4
Wind_Direction
257 258 262 267 270 273 275 276 280 282 282 282 286 285 284 288 284 283 292 283 279 280 278 278 276 277 281 276 277 274 275 277 277 280 279 278 277 276 275 277 279 280 278 273 269 264 262
258 260 263 266 271 272 274 277 279 282 285 287 288 288 293 289 287 282 287 278 278 278 281 275 275 275 282 279 276 276 277 277 278 279 279 276 275 275 275 276 277 275 274 274 271 269 266
261 264 266 270 271 274 275 277 281 284 287 286 290 292 296 297 293 292 289 279 277 279 273 275 274 275 277 277 275 276 279 278 279 278 275 274 275 275 274 274 274 274 273 272 270 269 267
265 267 270 271 272 273 276 278 281 281 288 286 288 294 297 296 298 297 288 286 279 277 276 278 280 287 283 275 274 274 275 275 273 274 273 274 274 274 273 273 271 271 272 271 269 268 267
266 267 267 269 271 274 276 278 280 281 285 283 285 288 290 289 293 295 290 284 276 274 277 278 286 290 279 277 272 272 271 271 271 272 272 272 273 274 273 272 271 269 268 266 265 266 267
264 266 267 269 270 272 274 278 280 282 281 279 281 288 284 286 287 292 286 285 280 273 273 277 282 274 273 270 273 278 275 271 268 268 270 273 273 271 271 269 268 266 267 268 269 268 266
262 265 266 266 269 271 273 274 276 278 282 280 278 280 280 281 284 282 282 282 278 275 271 275 275 270 265 264 269 288 281 275 274 272 270 269 269 272 272 269 269 270 270 269 267 266 268
266 266 267 268 269 271 272 273 274 277 276 278 277 272 275 276 272 279 278 272 269 269 270 269 269 267 264 267 272 275 275 274 278 271 268 270 270 266 264 264 263 264 265 267 268 269 271
266 268 268 269 269 271 271 272 274 275 275 274 273 272 271 274 271 271 271 267 261 269 270 272 272 268 267 267 270 270 268 271 273 270 268 265 263 259 259 262 264 265 267 269 271 271 275
265 267 268 269 269 271 271 270 274 271 271 274 270 269 269 260 276 257 255 265 271 272 266 271 267 264 265 267 268 268 268 271 268 265 262 259 256 256 260 262 263 265 268 270 273 274 276
267 268 268 269 270 272 272 269 268 267 265 261 263 264 257 262 261 260 260 265 267 276 267 271 269 267 266 266 267 266 268 268 267 265 260 257 256 257 261 264 265 269 272 275 275 276 277
265 266 265 265 268 265 265 265 264 261 259 260 261 260 263 265 256 261 265 274 260 264 269 272 271 269 271 271 269 270 270 269 265 263 261 261 261 263 264 265 269 272 274 274 276 278 279
260 259 260 260 258 256 258 258 258 257 258 262 263 260 253 251 269 263 269 253 269 263 265 267 270 273 270 266 267 269 269 268 263 258 256 258 261 265 267 269 272 273 274 276 277 280 285
256 256 255 252 252 255 258 257 258 259 260 261 261 260 258 255 261 254 260 262 258 267 265 273 272 271 268 262 264 269 266 260 260 261 261 261 262 266 269 271 272 276 278 280 284 283 283
251 249 250 248 250 252 255 253 255 259 258 257 255 254 252 246 257 251 250 262 269 270 270 271 271 271 268 265 266 265 262 261 260 258 263 269 271 272 271 272 274 276 280 280 281 285 278
247 243 246 246 245 249 251 250 252 255 253 251 237 246 243 245 246 247 247 255 255 258 264 267 266 267 270 270 271 267 264 261 262 266 268 268 269 270 277 277 277 276 279 272 283 281 271
241 239 240 242 241 246 249 246 248 246 245 245 242 236 240 245 245 245 246 247 251 255 258 264 262 267 269 271 271 261 260 264 268 270 273 274 276 281 281 280 285 272 261 249 284 298 309
235 234 234 236 238 243 245 240 239 242 241 245 238 243 239 241 241 243 253 248 257 250 258 258 265 266 264 256 254 263 269 273 277 278 280 284 287 283 281 269 205 184 181 220 232 274 299
229 228 228 230 234 240 232 233 234 239 240 238 224 236 234 240 245 247 250 256 252 257 262 260 251 246 243 254 267 273 276 279 280 280 283 274 261 244 192 230 202 189 198 238 248 240 242
221 223 223 226 232 229 229 227 230 229 228 217 239 228 247 250 250 250 254 256 250 254 248 233 225 240 256 267 277 282 282 283 282 275 206 198 225 207 203 214 213 198 199 236 233 235 233
211 209 216 217 219 231 229 228 220 213 219 221 226 240 244 251 251 256 249 244 236 228 219 223 242 254 268 279 280 284 286 275 205 156 161 172 168 172 207 219 223 234 143 151 176 204 254
202 205 202 214 207 192 190 188 211 221 235 241 241 245 250 253 251 243 237 224 220 205 218 238 252 268 276 278 281 271 252 200 166 171 154 153 51 204 217 212 210 121 85 138 132 194 239
194 184 195 204 200 203 202 208 227 228 230 244 245 242 242 240 232 221 211 203 196 206 228 245 261 270 279 279 274 245 200 184 175 158 166 15 79 205 168 176 156 122 148 164 197 132 314
188 188 195 201 210 211 220 220 227 222 224 230 232 231 222 214 207 197 188 185 201 218 237 254 269 281 281 265 239 210 200 196 161 117 350 121 150 140 159 161 168 177 159 163 203 239 203
192 195 199 202 204 207 206 205 212 220 221 222 216 205 199 190 185 184 182 190 205 223 239 258 276 284 264 242 222 211 209 186 182 200 164 94 187 163 158 181 204 214 206 217 199 177 243
188 190 190 192 195 204 206 206 209 213 205 202 200 194 179 179 180 180 189 200 209 223 242 261 269 261 231 218 218 216 201 180 180 190 167 172 171 194 182 193 184 184 192 195 179 148 134
181 183 187 188 193 195 198 201 196 186 192 193 178 174 173 177 186 184 198 207 216 227 243 253 265 236 220 220 228 224 214 209 192 178 145 161 190 170 193 196 181 162 156 151 144 141 124
171 175 178 182 184 183 182 182 184 185 174 168 166 167 175 181 182 193 199 203 216 234 239 250 258 233 216 211 214 227 225 221 218 184 174 183 164 155 136 169 156 138 144 140 136 132 116
166 168 172 169 164 169 176 180 177 167 166 165 169 178 184 184 189 195 199 209 226 233 235 240 239 231 220 218 218 237 251 241 227 217 195 180 156 125 140 155 162 172 170 153 139 129 107
Height
5736 5737 5738 5739 5741 5743 5744 5742 5743 5743 5744 5744 5748 5748 5746 5745 5746 5746 5745 5745 5744 5744 5743 5742 5741 5740 5740 5740 5740 5738 5740 5740 5739 5738 5738 5738 5738 5736 5735 5736 5737 5737 5739 5737 5736 5737 5737
5725 5726 5726 5728 5731 5732 5733 5733 5734 5734 5734 5735 5736 5737 5737 5734 5735 5736 5737 5735 5736 5735 5735 5733 5732 5731 5731 5732 5729 5730 5730 5729 5728 5727 5727 5727 5725 5725 5724 5725 5726 5727 5727 5728 5727 5726 5728
5713 5714 5716 5717 5718 5720 5721 5721 5721 5722 5724 5723 5724 5725 5724 5723 5724 5725 5726 5726 5726 5725 5725 5724 5724 5722 5722 5721 5720 5721 5719 5718 5718 5717 5716 5715 5714 5714 5713 5714 5714 5717 5717 5716 5715 5716 5717
5700 5702 5703 5706 5706 5706 5707 5709 5709 5708 5710 5711 5711 5710 5710 5711 5712 5713 5714 5714 5716 5715 5714 5714 5713 5713 5712 5711 5709 5708 5709 5708 5707 5706 5705 5704 5703 5703 5703 5703 5703 5705 5706 5706 5705 5704 5704
5686 5687 5690 5692 5694 5693 5694 5695 5696 5698 5698 5698 5699 5700 5699 5698 5699 5701 5701 5702 5703 5704 5705 5704 5702 5702 5702 5701 5700 5700 5697 5696 5697 5697 5694 5692 5692 5693 5693 5694 5694 5694 5694 5692 5692 5692 5693
5671 5673 5674 5676 5678 5679 5680 5681 5682 5684 5686 5687 5688 5686 5687 5685 5686 5688 5689 5688 5690 5691 5691 5693 5693 5693 5691 5692 5691 5689 5688 5687 5684 5683 5683 5682 5681 5681 5682 5682 5681 5681 5680 5681 5680 5681 5680
5654 5657 5658 5661 5663 5664 5665 5667 5668 5670 5671 5673 5673 5671 5672 5672 5672 5677 5676 5676 5678 5680 5679 5681 5681 5682 5681 5680 5679 5678 5676 5676 5677 5675 5673 5669 5669 5670 5671 5669 5668 5668 5667 5668 5670 5666 5665
5635 5639 5641 5643 5645 5648 5650 5651 5652 5655 5657 5658 5658 5658 5658 5657 5661 5663 5663 5662 5662 5664 5667 5668 5669 5671 5670 5669 5670 5664 5664 5665 5664 5661 5659 5660 5660 5660 5658 5658 5657 5656 5655 5658 5659 5654 5652
5617 5619 5621 5624 5627 5631 5633 5635 5638 5641 5642 5642 5644 5644 5645 5644 5646 5651 5651 5651 5649 5648 5651 5655 5655 5656 5655 5654 5654 5653 5652 5651 5651 5649 5648 5647 5648 5646 5644 5644 5644 5644 5643 5645 5645 5642 5642
5597 5600 5603 5606 5609 5612 5616 5618 5622 5625 5626 5627 5628 5630 5633 5628 5637 5637 5638 5637 5636 5635 5633 5642 5641 5641 5641 5640 5640 5642 5640 5641 5638 5637 5634 5633 5634 5633 5633 5634 5632 5632 5634 5631 5633 5630 5628
5577 5581 5585 5588 5591 5594 5598 5601 5605 5609 5609 5611 5613 5616 5619 5621 5623 5621 5623 5624 5623 5624 5619 5626 5629 5629 5629 5629 5628 5629 5628 5626 5625 5625 5624 5622 5621 5622 5622 5622 5622 5621 5621 5619 5618 5616 5610
5559 5564 5568 5571 5575 5578 5580 5585 5588 5592 5593 5594 5599 5601 5604 5610 5609 5609 5611 5613 5611 5611 5611 5615 5617 5618 5617 5616 5616 5616 5617 5616 5613 5612 5611 5611 5611 5611 5612 5611 5611 5610 5607 5606 5603 5600 5594
5541 5546 5551 5554 5558 5561 5565 5569 5571 5575 5577 5580 5583 5587 5593 5594 5595 5597 5602 5598 5597 5597 5602 5603 5604 5606 5605 5606 5606 5605 5604 5604 5603 5602 5601 5602 5602 5601 5603 5602 5601 5599 5593 5590 5590 5585 5582
5523 5529 5532 5537 5541 5547 5551 5554 5557 5561 5565 5568 5571 5574 5578 5582 5583 5587 5590 5589 5588 5591 5592 5593 5594 5595 5595 5594 5595 5595 5593 5593 5592 5591 5591 5592 5594 5593 5592 5592 5591 5588 5580 5576 5571 5571 5568
5505 5510 5515 5520 5526 5532 5536 5540 5544 5550 5553 5556 5559 5562 5566 5570 5572 5574 5577 5577 5581 5582 5582 5584 5583 5583 5584 5584 5583 5584 5583 5582 5582 5582 5583 5581 5584 5583 5579 5576 5577 5575 5565 5563 5556 5561 5555
5486 5491 5497 5504 5511 5518 5521 5527 5534 5538 5541 5544 5549 5551 5554 5557 5560 5563 5566 5570 5571 5573 5574 5574 5573 5574 5575 5576 5574 5573 5573 5574 5574 5576 5575 5575 5574 5571 5566 5563 5559 5559 5553 5552 5551 5552 5552
5464 5473 5480 5488 5495 5503 5509 5516 5522 5526 5530 5533 5535 5538 5544 5547 5550 5554 5557 5559 5562 5563 5563 5563 5563 5564 5565 5566 5565 5566 5566 5566 5565 5565 5564 5562 5559 5555 5549 5546 5546 5548 5546 5548 5550 5552 5551
5445 5453 5463 5473 5482 5490 5497 5504 5510 5514 5519 5523 5527 5532 5535 5538 5542 5543 5547 5551 5552 5552 5552 5554 5556 5556 5557 5558 5559 5559 5558 5557 5554 5553 5550 5546 5544 5541 5541 5539 5541 5543 5545 5546 5548 5552 5552
5427 5437 5447 5460 5471 5479 5485 5492 5499 5504 5510 5514 5519 5524 5526 5529 5532 5536 5538 5540 5541 5544 5546 5548 5550 5552 5552 5554 5553 5553 5551 5547 5545 5542 5539 5538 5537 5538 5540 5540 5541 5542 5544 5545 5546 5547 5549
5414 5425 5439 5451 5460 5467 5474 5482 5489 5495 5499 5505 5512 5516 5518 5522 5525 5528 5529 5532 5535 5538 5541 5543 5545 5547 5548 5547 5547 5545 5542 5539 5535 5533 5534 5535 5536 5537 5539 5540 5540 5541 5542 5542 5544 5546 5549
5406 5419 5431 5440 5449 5456 5464 5473 5481 5488 5493 5498 5504 5507 5513 5514 5517 5519 5523 5527 5530 5534 5537 5540 5542 5543 5543 5542 5540 5538 5536 5534 5533 5533 5534 5536 5536 5537 5536 5538 5539 5539 5539 5540 5543 5546 5548
5400 5412 5425 5435 5441 5448 5458 5466 5474 5482 5485 5492 5497 5500 5505 5508 5511 5514 5518 5523 5527 5530 5534 5537 5538 5539 5537 5536 5535 5534 5533 5533 5533 5534 5535 5535 5534 5533 5534 5536 5538 5538 5538 5540 5541 5545 5548
5395 5407 5419 5429 5437 5443 5452 5462 5469 5474 5480 5485 5490 5494 5499 5502 5506 5511 5516 5520 5524 5527 5531 5533 5534 5534 5533 5532 5531 5531 5532 5533 5534 5535 5533 5532 5531 5530 5532 5535 5537 5539 5540 5541 5543 5546 5548
5395 5406 5415 5424 5432 5441 5449 5456 5463 5468 5474 5479 5483 5488 5493 5497 5502 5507 5512 5517 5521 5524 5527 5528 5530 5529 5529 5528 5529 5529 5531 5532 5533 5533 5531 5531 5530 5529 5532 5535 5538 5539 5540 5541 5544 5546 5548
5396 5405 5413 5422 5429 5437 5445 5451 5457 5463 5467 5473 5477 5483 5489 5493 5500 5505 5511 5515 5518 5522 5524 5525 5526 5526 5525 5527 5528 5529 5530 5531 5530 5530 5531 5532 5532 5531 5533 5536 5538 5539 5541 5543 5544 5547 5547
5395 5403 5411 5418 5426 5433 5440 5447 5452 5458 5464 5470 5476 5482 5487 5493 5499 5503 5508 5512 5517 5519 5520 5521 5522 5522 5524 5526 5526 5527 5528 5529 5529 5530 5530 5531 5532 5533 5534 5536 5537 5539 5540 5542 5544 5546 5547
5394 5401 5409 5415 5423 5430 5437 5443 5450 5456 5462 5470 5475 5480 5486 5491 5496 5502 5508 5512 5514 5516 5517 5518 5519 5521 5523 5525 5525 5525 5527 5527 5528 5529 5531 5532 5532 5532 5534 5536 5538 5539 5540 5542 5545 5550 5548
5394 5400 5407 5415 5422 5428 5435 5443 5449 5456 5463 5469 5475 5480 5486 5491 5497 5502 5506 5509 5511 5513 5514 5516 5517 5518 5521 5522 5523 5524 5525 5526 5527 5529 5529 5531 5532 5533 5535 5537 5539 5540 5542 5544 5545 5547 5548
5393 5400 5407 5415 5422 5428 5436 5444 5451 5457 5463 5470 5475 5480 5486 5492 5497 5500 5503 5506 5508 5510 5512 5513 5515 5515 5518 5520 5522 5522 5523 5525 5525 5527 5529 5532 5532 5534 5536 5538 5539 5541 5542 5544 5545 5547 5548